Preview of NWS' New Version of Forecast
This preview is not operational and should not be used for support decisions.

Terminal Aerodrome Forecast (TAF)

Issued by National Weather Service (NWS)

                            
000
FTUS42 KCAE 151736
TAFOGB
TAF
KOGB 151736Z 1518/1618 05010G17KT P6SM SCT040
     FM152300 02005KT P6SM FEW250=